Telluride, CO

2:25 AM MDT on June 18, 2018 (GMT -0600)
Telluride Regional

Weather History for KTEX - October, 2017

Change the Weather History Date:

Tuesday, October 31, 2017

  Actual Average Record
Temperature  
Mean Temperature 40 °F -  
Max Temperature 47 °F 43 °F 59 °F (2008)
Min Temperature 34 °F 27 °F 15 °F (2004)
Degree Days  
Heating Degree Days 24    
Moisture  
Dew Point 34 °F    
Average Humidity 84    
Maximum Humidity 100    
Minimum Humidity 51    
Precipitation  
Precipitation 0.12 in - - ()
Sea Level Pressure  
Sea Level Pressure 30.07 in    
Wind  
Wind Speed 2 mph (South)    
Max Wind Speed 13 mph    
Max Gust Speed 20 mph    
Visibility 9 miles    
Events Rain , Snow , Thunderstorm    
Averages and records for this station are not official NWS values.
T = Trace of Precipitation, MM = Missing Value Source: NWS Daily Summary

Daily Weather History Graph

Daily Weather History Graph

Search for Another Location

Airport or City:

Astronomy

Oct. 31, 2017 Rise Set
Actual Time 7:36 AM MDT 6:13 PM MDT
Civil Twilight 7:09 AM MDT 6:40 PM MDT
Nautical Twilight 6:38 AM MDT 7:11 PM MDT
Astronomical Twilight 6:07 AM MDT 7:42 PM MDT
Moon 4:32 PM MDT (10/31) 3:30 AM MDT (10/31)
Length of Visible Light 11h 31m
Length of Day
10h 36m
Waxing Gibbous, 85% of the Moon is Illuminated
Oct 31
Waxing Gibbous
Nov 3
Full
Nov 10
Last Quarter
Nov 18
New
Nov 26
First Quarter

Hourly Weather History & Observations

Time (MDT) Temp. Windchill Dew Point Humidity Pressure Visibility Wind Dir Wind Speed Gust Speed Precip Events Conditions
12:15 AM 39.6 °F - 34.7 °F 83% 30.08 in 10.0 mi Calm Calm - N/A Rain Rain
12:35 AM 39.2 °F - 34.9 °F 84% 30.08 in 7.0 mi Calm Calm - N/A Rain Light Rain
12:55 AM 38.3 °F - 35.8 °F 91% 30.08 in 7.0 mi Calm Calm - N/A Rain Light Rain
1:15 AM 37.6 °F - 35.8 °F 93% 30.08 in 7.0 mi Calm Calm - 0.01 in Rain Light Rain
1:35 AM 37.4 °F - 36.7 °F 97% 30.07 in 7.0 mi Calm Calm - 0.01 in Rain Light Rain
1:55 AM 36.7 °F - 36.5 °F 99% 30.07 in 5.0 mi Calm Calm - 0.03 in Rain Light Rain
2:15 AM 37.4 °F 34.9 °F 36.0 °F 95% 30.07 in 10.0 mi SE 3.5 mph - N/A   Light Drizzle
2:35 AM 37.4 °F - 35.6 °F 93% 30.06 in 7.0 mi Calm Calm - N/A Rain Light Rain
2:55 AM 36.9 °F - 36.0 °F 97% 30.07 in 7.0 mi Calm Calm - 0.01 in Rain Rain
3:15 AM 36.7 °F - 36.3 °F 99% 30.07 in 7.0 mi Calm Calm - 0.01 in Rain Light Rain
3:35 AM 35.8 °F - 35.1 °F 97% 30.07 in 3.0 mi Calm Calm - 0.03 in   Overcast
3:55 AM 34.3 °F - 34.0 °F 99% 30.07 in 1.5 mi Calm Calm - 0.03 in Snow Light Snow
4:15 AM 34.3 °F - 34.3 °F 100% 30.05 in 7.0 mi Calm Calm - N/A Snow Light Snow
4:35 AM 35.8 °F - 35.8 °F 100% 30.05 in 10.0 mi Calm Calm - 0.02 in   Overcast
4:55 AM 35.2 °F - 34.9 °F 99% 30.05 in 10.0 mi Calm Calm - 0.02 in   Overcast
5:15 AM 36.5 °F - 35.2 °F 95% 30.05 in 10.0 mi Calm Calm - 0.01 in Snow Light Snow
5:35 AM 36.5 °F 31.8 °F 35.8 °F 97% 30.06 in 10.0 mi SSE 5.8 mph - 0.02 in   Overcast
5:55 AM 36.0 °F 33.3 °F 35.6 °F 99% 30.07 in 10.0 mi ESE 3.5 mph - 0.02 in Rain Light Rain
6:15 AM 36.7 °F 30.5 °F 35.6 °F 96% 30.07 in 10.0 mi ESE 8.1 mph - N/A   Overcast
6:35 AM 36.5 °F 31.0 °F 35.6 °F 97% 30.07 in 10.0 mi SSE 6.9 mph - N/A   Overcast
6:55 AM 35.8 °F 30.9 °F 35.6 °F 99% 30.07 in 10.0 mi SE 5.8 mph - N/A   Overcast
7:15 AM 36.1 °F 32.3 °F 35.8 °F 99% 30.07 in 10.0 mi ESE 4.6 mph - N/A   Overcast
7:35 AM 36.3 °F 30.8 °F 35.8 °F 98% 30.07 in 10.0 mi SE 6.9 mph - N/A   Overcast
7:55 AM 36.9 °F 31.4 °F 35.8 °F 96% 30.07 in 10.0 mi SE 6.9 mph - N/A   Overcast
8:15 AM 36.7 °F 34.1 °F 35.6 °F 96% 30.08 in 10.0 mi SE 3.5 mph - N/A Rain Light Rain
8:35 AM 36.0 °F - 35.6 °F 99% 30.10 in 10.0 mi Calm Calm - N/A   Overcast
8:55 AM 36.9 °F - 35.6 °F 95% 30.10 in 10.0 mi Calm Calm - N/A   Light Drizzle
9:15 AM 36.7 °F - 36.5 °F 99% 30.10 in 10.0 mi Calm Calm - N/A   Overcast
9:35 AM 37.6 °F - 36.1 °F 95% 30.10 in 10.0 mi Calm Calm - N/A   Overcast
9:55 AM 38.7 °F 34.3 °F 36.3 °F 91% 30.10 in 10.0 mi SE 5.8 mph - N/A   Overcast
10:15 AM 38.8 °F - 37.2 °F 94% 30.10 in 10.0 mi Calm Calm - N/A   Overcast
10:35 AM 38.7 °F - 37.9 °F 97% 30.10 in 10.0 mi Calm Calm - N/A   Overcast
10:55 AM 40.6 °F - 37.0 °F 87% 30.10 in 10.0 mi Calm Calm - N/A   Overcast
11:15 AM 40.3 °F - 36.9 °F 88% 30.10 in 10.0 mi Calm Calm - N/A   Overcast
11:35 AM 40.6 °F - 36.9 °F 86% 30.10 in 10.0 mi Calm Calm - N/A   Overcast
11:55 AM 41.0 °F - 38.1 °F 89% 30.10 in 10.0 mi Calm Calm - N/A Rain Light Rain
12:15 PM 41.9 °F 40.0 °F 36.3 °F 81% 30.10 in 10.0 mi SSW 3.5 mph - N/A   Overcast
12:35 PM 41.4 °F - 35.4 °F 79% 30.09 in 10.0 mi Calm Calm - N/A   Overcast
12:55 PM 41.7 °F 37.3 °F 34.5 °F 76% 30.09 in 10.0 mi WSW 6.9 mph - N/A   Overcast
1:15 PM 41.7 °F - 34.0 °F 74% 30.08 in 10.0 mi Calm Calm - N/A   Overcast
1:35 PM 41.5 °F - 33.6 °F 73% 30.06 in 10.0 mi Calm Calm - N/A Rain Light Rain
1:55 PM 41.2 °F - 35.4 °F 80% 30.05 in 10.0 mi Calm Calm - N/A Rain , Thunderstorm Light Thunderstorms and Rain
2:15 PM 41.0 °F - 35.6 °F 81% 30.05 in 10.0 mi Calm Calm - N/A   Unknown
2:35 PM 41.2 °F - 35.6 °F 81% 30.05 in 10.0 mi Calm Calm - N/A   Overcast
2:55 PM 42.1 °F 37.7 °F 35.6 °F 78% 30.05 in 10.0 mi East 6.9 mph - N/A   Mostly Cloudy
3:15 PM 42.6 °F - 35.2 °F 75% 30.04 in 10.0 mi Calm Calm - N/A   Unknown
3:35 PM 43.5 °F 41.9 °F 35.4 °F 73% 30.03 in 10.0 mi WSW 3.5 mph - N/A Rain Light Rain
3:55 PM 45.5 °F 44.2 °F 35.2 °F 67% 30.03 in 10.0 mi West 3.5 mph - N/A Thunderstorm Mostly Cloudy
4:15 PM 46.0 °F 41.9 °F 32.0 °F 58% 30.03 in 10.0 mi WNW 8.1 mph - N/A   Scattered Clouds
4:35 PM 46.0 °F 40.2 °F 31.3 °F 56% 30.03 in 10.0 mi West 12.7 mph 19.6 mph N/A   Mostly Cloudy
4:55 PM 47.3 °F - 30.7 °F 53% 30.03 in 10.0 mi WSW 9.2 mph - 0.01 in   Scattered Clouds
5:15 PM 46.4 °F 43.5 °F 31.1 °F 55% 30.03 in 10.0 mi WSW 5.8 mph - N/A   Scattered Clouds
5:55 PM 45.5 °F 41.3 °F 28.4 °F 51% 30.04 in 10.0 mi WNW 8.1 mph 17.3 mph N/A   Scattered Clouds
6:15 PM 45.0 °F 40.6 °F 30.0 °F 56% 30.04 in 10.0 mi WSW 8.1 mph - N/A   Scattered Clouds
6:35 PM 43.9 °F 41.3 °F 30.2 °F 59% 30.05 in 10.0 mi WSW 4.6 mph - N/A   Scattered Clouds
7:35 PM 42.3 °F - 29.3 °F 60% 30.07 in 10.0 mi Calm Calm - N/A   Scattered Clouds
8:15 PM 41.0 °F 37.1 °F 30.6 °F 66% 30.07 in 10.0 mi SE 5.8 mph - N/A   Scattered Clouds
8:35 PM 39.6 °F - 30.7 °F 71% 30.07 in 10.0 mi Calm Calm - N/A   Mostly Cloudy
8:55 PM 39.0 °F 34.0 °F 30.6 °F 72% 30.07 in 10.0 mi SSE 6.9 mph - N/A   Mostly Cloudy
9:15 PM 38.7 °F 35.2 °F 30.9 °F 74% 30.07 in 10.0 mi SE 4.6 mph - N/A   Overcast
9:35 PM 38.5 °F 34.1 °F 31.1 °F 75% 30.07 in 10.0 mi SE 5.8 mph - N/A   Overcast
9:55 PM 38.7 °F - 30.9 °F 74% 30.07 in 10.0 mi Calm Calm - N/A   Overcast
10:15 PM 38.5 °F 35.0 °F 31.5 °F 76% 30.07 in 10.0 mi SE 4.6 mph - N/A   Overcast
10:35 PM 37.9 °F - 31.8 °F 79% 30.08 in 10.0 mi Calm Calm - N/A   Overcast
10:55 PM 38.5 °F - 31.1 °F 75% 30.08 in 10.0 mi Calm Calm - N/A   Overcast
11:35 PM 38.5 °F - 31.5 °F 76% 30.08 in 10.0 mi Calm Calm - N/A   Overcast
11:55 PM 37.9 °F 35.5 °F 31.5 °F 77% 30.08 in 10.0 mi SE 3.5 mph - N/A   Mostly Cloudy